Overview Statistics Trail Chart Weather Telemetry Raw packets
 

This is the latest recevied weather packets stored in our database for station/object OK2KJT-11. If no packets are shown the sender has not sent any weather packets the latest 10 day(s).

<< 51 52 53 54 55 56 57 >>
Time Temp. Humidity Pressure Rain* Wind** Luminosity Snow
1787913744 23.89° C 43% 1019.1 hPa - - - -
1787913144 22.78° C 45% 1019.3 hPa - - - -
1787912545 22.78° C 45% 1019.6 hPa - - - -
1787911945 23.33° C 44% 1019.6 hPa - - - -
1787911345 23.33° C 43% 1019.6 hPa - - - -
1787910745 23.89° C 43% 1019.6 hPa - - - -
1787909546 23.33° C 43% 1019.6 hPa - - - -
1787908946 23.33° C 44% 1019.9 hPa - - - -
1787908347 22.78° C 43% 1019.8 hPa - - - -
1787907747 22.78° C 44% 1019.6 hPa - - - -
1787907147 22.22° C 45% 1019.7 hPa - - - -
1787906547 22.22° C 45% 1019.9 hPa - - - -
1787905946 21.67° C 46% 1019.9 hPa - - - -
1787905347 21.67° C 46% 1020.3 hPa - - - -
1787904747 21.11° C 47% 1020.2 hPa - - - -
1787904147 21.11° C 47% 1020.3 hPa - - - -
1787903547 20.56° C 48% 1020.1 hPa - - - -
1787902948 20.56° C 48% 1020.2 hPa - - - -
1787902348 20.56° C 48% 1020.2 hPa - - - -
1787901748 20.56° C 49% 1020.2 hPa - - - -
1787901148 20° C 50% 1019.9 hPa - - - -
1787900549 20° C 51% 1019.9 hPa - - - -
1787899947 19.44° C 51% 1019.7 hPa - - - -
1787899348 19.44° C 50% 1019.8 hPa - - - -
1787898748 19.44° C 50% 1019.8 hPa - - - -

* Rain since midnight (hover to see other rain measurements)
** Current wind speed in m/s (hover to see current wind gust speed)